Provincetown, Massachusetts, United States (02657)
Lat: 42.06N, Lon: 70.18W
Wx Zone: MAZ022
Local Info
Past Weather Observations for Today

NOTE: This archive is for the closest National Weather Service station to Provincetown. Information may differ from the station used for current weather conditions.

Click here for Long-term Archive

Time Weather Temperature Dewpoint Humidity Pressure Winds Precip Visibility
21:56
Mostly Cloudy
63°F / 17°C 61°F / 16°C 94% 29.89 in
(1012 mb)
Calm - 10SM
20:56
Clear
63°F / 17°C 61°F / 16°C 94% 29.89 in
(1012 mb)
Calm - 10SM
19:56
Clear
64°F / 18°C 63°F / 17°C 94% 29.86 in
(1011 mb)
Calm - 10SM
18:56
Partly Cloudy
66°F / 19°C 63°F / 17°C 88% 29.83 in
(1010 mb)
NNE 5.8 mph
(NNE 9 kph)
- 10SM
18:11
Partly Cloudy
68°F / 20°C 63°F / 17°C 83% 29.83 in
(1010 mb)
NE 6.9 mph
(NE 11 kph)
- 10SM
17:56
Partly Cloudy
68°F / 20°C 63°F / 17°C 83% 29.83 in
(1010 mb)
NE 5.8 mph
(NE 9 kph)
- 10SM
17:54
Partly Cloudy
68°F / 20°C 63°F / 17°C 83% 29.83 in
(1010 mb)
NE 8.1 mph
(NE 13 kph)
- 10SM
17:28
Overcast
68°F / 20°C 64°F / 18°C 88% 29.83 in
(1010 mb)
NE 6.9 mph
(NE 11 kph)
- 10SM
17:20
Overcast
68°F / 20°C 64°F / 18°C 88% 29.83 in
(1010 mb)
NE 8.1 mph
(NE 13 kph)
- 10SM
17:06
Overcast
70°F / 21°C 64°F / 18°C 83% 29.83 in
(1010 mb)
NNE 9.2 mph
(NNE 15 kph)
- 10SM
16:56
Overcast
70°F / 21°C 64°F / 18°C 83% 29.8 in
(1009 mb)
NE 9.2 mph
(NE 15 kph)
- 10SM
15:56
Overcast
70°F / 21°C 64°F / 18°C 83% 29.83 in
(1010 mb)
N 9.2 mph
(N 15 kph)
0.00 in
(0.00 mm)
10SM
14:56
Overcast
70°F / 21°C 64°F / 18°C 83% 29.83 in
(1010 mb)
N 10.4 mph
(N 17 kph)
0.00 in
(0.00 mm)
10SM
13:56
Overcast
70°F / 21°C 64°F / 18°C 83% 29.8 in
(1009 mb)
N 13.8 mph
(N 22 kph)
- 10SM
12:56
Overcast
70°F / 21°C 64°F / 18°C 83% 29.8 in
(1009 mb)
NNW 12.7 mph
(NNW 20 kph)
- 8SM
12:25
Overcast
70°F / 21°C 64°F / 18°C 83% 29.8 in
(1009 mb)
N 11.5 mph
(N 19 kph)
- 10SM
12:18
Overcast
70°F / 21°C 64°F / 18°C 83% 29.8 in
(1009 mb)
N 12.7 mph
(N 20 kph)
- 10SM
11:56
Overcast
72°F / 22°C 64°F / 18°C 78% 29.8 in
(1009 mb)
NNW 13.8 mph
(NNW 22 kph)
- 10SM
10:56
Overcast
72°F / 22°C 66°F / 19°C 83% 29.8 in
(1009 mb)
N 8.1 mph
(N 13 kph)
- 10SM
10:03
Overcast
73°F / 23°C 66°F / 19°C 78% 29.8 in
(1009 mb)
NNW 13.8 mph
(NNW 22 kph)
- 10SM
09:56
Overcast
73°F / 23°C 68°F / 20°C 83% 29.8 in
(1009 mb)
N 11.5 mph
(N 19 kph)
- 10SM
09:18
Overcast
73°F / 23°C 66°F / 19°C 78% 29.8 in
(1009 mb)
N 12.7 mph
(N 20 kph)
- 10SM
09:09
Overcast
73°F / 23°C 68°F / 20°C 83% 29.8 in
(1009 mb)
N 9.2 mph
(N 15 kph)
- 10SM
08:56
Overcast
73°F / 23°C 66°F / 19°C 78% 29.8 in
(1009 mb)
N 12.7 mph
(N 20 kph)
- 10SM
08:48
Mostly Cloudy
73°F / 23°C 68°F / 20°C 83% 29.8 in
(1009 mb)
NNE 11.5 mph
(NNE 19 kph)
- 10SM
08:40
Mostly Cloudy
75°F / 24°C 68°F / 20°C 78% 29.77 in
(1008 mb)
N 10.4 mph
(N 17 kph)
- 10SM
07:56
Partly Cloudy
75°F / 24°C 70°F / 21°C 83% 29.77 in
(1008 mb)
N 8.1 mph
(N 13 kph)
- 10SM
07:53
Partly Cloudy
75°F / 24°C 70°F / 21°C 83% 29.77 in
(1008 mb)
N 11.5 mph
(N 19 kph)
- 10SM
06:56
Mostly Cloudy
73°F / 23°C 68°F / 20°C 83% 29.77 in
(1008 mb)
NNW 4.6 mph
(NNW 7 kph)
- 10SM
05:56
Clear
73°F / 23°C 70°F / 21°C 89% 29.77 in
(1008 mb)
NNW 3.5 mph
(NNW 6 kph)
- 10SM
04:56
Mostly Cloudy
72°F / 22°C 70°F / 21°C 94% 29.77 in
(1008 mb)
SSW 5.8 mph
(SSW 9 kph)
- 9SM
03:56
Partly Cloudy
72°F / 22°C 70°F / 21°C 94% 29.74 in
(1007 mb)
Calm - 10SM
03:19
Partly Cloudy
72°F / 22°C 70°F / 21°C 94% 29.74 in
(1007 mb)
SSW 4.6 mph
(SSW 7 kph)
- 10SM
03:11
Mostly Cloudy
72°F / 22°C 70°F / 21°C 94% 29.74 in
(1007 mb)
SSW 4.6 mph
(SSW 7 kph)
- 10SM
02:56
Partly Cloudy
72°F / 22°C 70°F / 21°C 94% 29.74 in
(1007 mb)
SSW 4.6 mph
(SSW 7 kph)
- 10SM
02:15
Partly Cloudy
73°F / 23°C 70°F / 21°C 89% 29.74 in
(1007 mb)
SW 8.1 mph
(SW 13 kph)
- 10SM
01:56
Overcast
73°F / 23°C 70°F / 21°C 89% 29.74 in
(1007 mb)
SSW 6.9 mph
(SSW 11 kph)
- 10SM
01:23
Mostly Cloudy
73°F / 23°C 72°F / 22°C 94% 29.74 in
(1007 mb)
SSW 12.7 mph
(SSW 20 kph)
- 10SM
01:14
Partly Cloudy
73°F / 23°C 70°F / 21°C 89% 29.74 in
(1007 mb)
SSW 12.7 mph
(SSW 20 kph)
- 10SM
00:56
Clear
73°F / 23°C 70°F / 21°C 89% 29.74 in
(1007 mb)
SW 9.2 mph
(SW 15 kph)
- 10SM
00:04
Partly Cloudy
73°F / 23°C 70°F / 21°C 89% 29.77 in
(1008 mb)
SW 10.4 mph
(SW 17 kph)
- 10SM
Time Weather Temperature Dewpoint Humidity Pressure Winds Precip Visibility


Weather for websites

WeatherForYou.com, LLC is not responsible for any damages or problems caused by this service. Current weather conditions are obtained from the closest station including government and personal stations which may have varying degrees of accuracy. Weather forecasts are derived from the NOAA NDFD. Like all things, this site belongs to Jesus Christ... He just trusts me to maintain it. If you have any questions or comments email webmaster@weatherforyou.com

Copyright © 2014, WeatherForYou.com LLC. All rights reserved.